Regional Weather Roundup
Issued by NWS

Home | Current Version | Previous Version | Graphics & Text | Print | Product List | Glossary On
Versions: 1 2 3 4 5 6 7 8 9 10 11 12 13 14 15 16 17 18 19 20 21 22 23 24 25 26 27
000
ASUS45 KBOU 231107
RWRCO

WEATHER ROUNDUP FOR COLORADO
NATIONAL WEATHER SERVICE DENVER/BOULDER CO
400 AM MST THU FEB 23 2017

NOTE: "FAIR" INDICATES FEW OR NO CLOUDS BELOW 12000 FEET WITH NO
SIGNIFICANT WEATHER AND/OR OBSTRUCTIONS TO VISIBILITY.

COZ001>005-013-030-031-231200-
...NORTHWEST COLORADO...

CITY           SKY/WX    TMP DP  RH WIND       PRES   REMARKS
CRAIG          LGT SNOW  29  25  85 W10       29.48S VSB 3/4 WCI  20
HAYDEN         CLOUDY    28  25  86 N3        29.44F
MEEKER         LGT SNOW  28  26  92 VRB7      29.49R VSB 3/4 WCI  21
MOUNT WERNER   NOT AVBL
STEAMBOAT SPGS CLOUDY    32  27  82 CALM      29.45F
WALDEN         NOT AVBL
$$

COZ006>008-011-231200-
...WEST CENTRAL VALLEYS...

CITY           SKY/WX    TMP DP  RH WIND       PRES   REMARKS
GRAND JUNCTION CLOUDY    37  31  78 NW17G24   29.55S
MONTROSE       FLURRIES  36  33  89 W9G17     29.57S
EAGLE          MOCLDY    41  12  30 W10G29    29.46F
RIFLE          LGT SNOW  34  32  92 W31G39    29.49S FOG     WCI  20
DELTA          CLOUDY    42  32  66 W21       29.54R
NUCLA          LGT SNOW  34  30  86 W13       29.61S WCI  25
$$

COZ017>023-064>068-231200-
...SOUTHWEST COLORADO...

CITY           SKY/WX    TMP DP  RH WIND       PRES   REMARKS
DURANGO        MOCLDY    36  21  54 W20G28    29.63F
CORTEZ         FLURRIES  36  33  89 SW15      29.64F
PAGOSA SPRINGS FAIR      37  12  35 SW18G35   29.65F
TELLURIDE      LGT SNOW  28  23  83 SW17G35   29.58F VSB 3/4 WCI  15
WOLF CREEK PAS   N/A     16  12  86 S44G63    29.58F WCI  -8
$$

COZ009-010-012-014-032>034-037-058>063-231200-
...CENTRAL COLORADO...

CITY           SKY/WX    TMP DP  RH WIND       PRES   REMARKS
ASPEN          CLOUDY    34  18  52 S12       29.49F WCI  25
BUENA VISTA    CLOUDY    35  11  38 SE13G20   29.50F WCI  26
COPPER MTN     CLOUDY    25   5  42 MISG      29.53F
BERTHOUD PASS  HAZE      10   1  67 SE14      29.54F VSB 1/2 WCI  -5
COTTONWOOD PAS CLOUDY    32   5  32 S14G21    29.52F WCI  22
GUNNISON       FAIR      24  20  84 SW6       29.54F WCI  17
KREMMLING      MOCLDY    41  10  28 SW14G23   29.46F
LEADVILLE      CLOUDY    25   9  50 S13       29.50F WCI  14
MONARCH PASS   CLOUDY    19  10  68 SW37G44   29.63F WCI  -1
SALIDA         MOCLDY    40  10  29 S10G16    29.59F
SUNLIGHT       NOT AVBL
WILKERSON PASS MOCLDY    21   9  58 SW9G23    29.57F WCI  11
$$

COZ069>075-231200-
...SAN LUIS VALLEY/SANGRE DE CRISTO MOUNTAINS...

CITY           SKY/WX    TMP DP  RH WIND       PRES   REMARKS
ALAMOSA        FAIR      36  17  46 SW15G25   29.61F
LA VETA PASS   CLOUDY    28  18  64 NE37G59   29.59F WCI  11
SAGUACHE       FAIR      23  19  86 N7        29.57F WCI  15
$$

COZ035-036-038>040-231200-
...NORTHERN COLORADO FRONT RANGE...

CITY           SKY/WX    TMP DP  RH WIND       PRES   REMARKS
DENVER INTL AP MOCLDY    29  25  85 NE12      29.62F WCI  19
DMNS CITY PARK   N/A     29  25  83 N6        29.63F WCI  23
AURORA         PTCLDY    23  23  99 NE5       29.63F WCI  17
FRONT RANGE AP CLOUDY    32  28  86 NE7       29.63F WCI  26
ERIE MUNI ARPT CLOUDY    32  28  83 N6        29.65S WCI  26
BOULDER MUN AP CLOUDY    34  28  80 NE9G17    29.64F WCI  26
CENTENNIAL     FAIR      27  24  89 N8        29.62F WCI  19
BROOMFIELD     CLOUDY    32  28  86 N9        29.64S WCI  24
FORT COLLINS   MIX PCPN  34  28  79 E9        29.66F WCI  27
LONGMONT       CLOUDY    36  28  74 NE10      29.68S
$$

COZ041-046-047-076>085-087-088-231200-
...PIKES PEAK/PALMER DIVIDE AND SOUTHERN FOOTHILLS...

CITY           SKY/WX    TMP DP  RH WIND       PRES   REMARKS
COLO. SPRINGS  FAIR      30  19  63 N7        29.56F WCI  23
A. F. ACADEMY  CLEAR     28  20  72 N14       29.56F WCI  16
SCHRIEVER AFB  FAIR      28  20  71 N20G28    29.55F WCI  15
ELLICOTT       FAIR     N/A N/A N/A N8        29.54F
FALCON         FAIR      27  20  75 N17       29.56F WCI  14
FORT CARSON    FAIR      32  20  59 N16G25    29.54F WCI  22
LIMON          FAIR      19  17  92 NW6       29.59F WCI  11
MONUMENT HILL  FAIR      19  18  93 NW8       29.60F WCI   9
TRINIDAD       FAIR      48  21  34 SW16      29.56F
$$

COZ042>045-048>051-090-091-231200-
...NORTHEAST COLORADO...

CITY           SKY/WX    TMP DP  RH WIND       PRES   REMARKS
GREELEY ARPT   LGT RAIN  34  28  79 NE6       29.67F WCI  29
AKRON          FOG       31  30  96 E22       29.61F VSB 3/4 WCI  18
BURLINGTON     FAIR      32  25  75 NE10      29.61S WCI  24
WRAY           NOT AVBL
STERLING       CLOUDY    34  32  93 E16G23    29.65F WCI  23
HOLYOKE        CLOUDY    34  30  86 NE18      29.68F WCI  23
FORT MORGAN    CLOUDY    34  30  85 E20       29.65S WCI  22
$$

COZ086-089-092>099-231200-
...SOUTHEAST COLORADO...

CITY           SKY/WX    TMP DP  RH WIND       PRES   REMARKS
PUEBLO         FAIR      36  18  48 N13G22    29.54F
LA JUNTA       FAIR      34  18  52 NW13      29.56S WCI  25
LAMAR          FAIR      36  24  62 E8        29.52F
SPRINGFIELD      N/A     51  27  39 SW6       29.55F
$$




USA.gov is the U.S. government's official web portal to all federal, state and local government web resources and services.